This is the latest recevied weather packets stored in our database for station/object AK4NG. If no packets are shown the sender has not sent any weather packets the latest 10 day(s).
| Time | Temp. | Humidity | Pressure | Rain* | Wind** | Luminosity | Snow |
|---|---|---|---|---|---|---|---|
| 1777817804 | 18.89° C | 51% | 1022.4 hPa | 0 mm | - | 538 W/m² | - |
| 1777817502 | 18.89° C | 52% | 1022.2 hPa | 0 mm | - | 517 W/m² | - |
| 1777817197 | 18.89° C | 50% | 1022.2 hPa | 0 mm | - | 497 W/m² | - |
| 1777816896 | 18.33° C | 51% | 1022.2 hPa | 0 mm | - | 477 W/m² | - |
| 1777816592 | 17.78° C | 54% | 1022.2 hPa | 0 mm | - | 456 W/m² | - |
| 1777816289 | 17.22° C | 52% | 1022.1 hPa | 0 mm | - | 438 W/m² | - |
| 1777815987 | 17.78° C | 56% | 1022.1 hPa | 0 mm | - | 419 W/m² | - |
| 1777815684 | 17.78° C | 54% | 1022.3 hPa | 0 mm | - | 400 W/m² | - |
| 1777815381 | 17.22° C | 57% | 1022.1 hPa | 0 mm | - | 380 W/m² | - |
| 1777815078 | 17.22° C | 59% | 1022.1 hPa | 0 mm | - | 360 W/m² | - |
| 1777814774 | 16.67° C | 58% | 1022 hPa | 0 mm | - | 341 W/m² | - |
| 1777814471 | 16.67° C | 59% | 1022 hPa | 0 mm | - | 322 W/m² | - |
| 1777814169 | 16.67° C | 63% | 1022.1 hPa | 0 mm | - | 304 W/m² | - |
| 1777813865 | 16.11° C | 62% | 1022 hPa | 0 mm | - | 286 W/m² | - |
| 1777813563 | 15° C | 63% | 1022.2 hPa | 0 mm | - | 265 W/m² | - |
| 1777813261 | 15° C | 66% | 1021.9 hPa | 0 mm | - | 250 W/m² | - |
| 1777812958 | 14.44° C | 66% | 1022.1 hPa | 0 mm | - | 230 W/m² | - |
| 1777812655 | 13.89° C | 64% | 1021.9 hPa | 0 mm | - | 215 W/m² | - |
| 1777812351 | 13.33° C | 71% | 1022.1 hPa | 0 mm | - | 196 W/m² | - |
| 1777812050 | 12.22° C | 77% | 1022 hPa | 0 mm | - | 133 W/m² | - |
| 1777811748 | 11.67° C | 84% | 1022 hPa | 0 mm | - | 99 W/m² | - |
| 1777811444 | 11.11° C | 86% | 1022 hPa | 0 mm | - | 96 W/m² | - |
| 1777811141 | 10° C | 89% | 1021.9 hPa | 0 mm | - | 101 W/m² | - |
| 1777810838 | 9.44° C | 91% | 1022 hPa | 0 mm | - | 102 W/m² | - |
| 1777810535 | 8.89° C | 93% | 1022.1 hPa | 0 mm | - | 99 W/m² | - |
* Rain latest hour (hover to see other rain measurements)
** Current wind speed in m/s (hover to see current wind gust speed)